Weather in Milyutinskaya

Russia / Rostov Oblast     48°37′45″N   41°40′07″E
temp.,
°C
wind,
m/s
gust,
m/s
humid.,
%
clouds,
%
prec.,
mm/h
press.,
hPa
HPBL,
m
30 june, thu
thu3000:00+16ne34551 0.0 101761
03:00+14ne3362100 0.0 101736
06:00+16ne2460100 0.0 1017108
09:00+22ene234289 0.0 1017812
12:00+24nne323499 0.0 10162253
15:00+26n333095 0.0 10152502
18:00+25nnw343312 0.0 10142210
21:00+21nne3647100 0.0 1014150
1 july, fri
fri100:00+19nne345463 0.0 101489
03:00+16nnw236282 0.0 101429
06:00+18nw355975 0.0 1013167
09:00+23nw69400 0.0 10121903
12:00+26nw7103181 0.0 10113201
15:00+25n911285 0.0 10113004
18:00+21n883410 0.0 10122187
21:00+15nne712451 0.0 1015579
2 july, sat
sat200:00+12n611630 0.0 1015672
03:00+8nnw51183100 0.0 1015338
06:00+10nw7137393 0.0 1015442
09:00+17nnw9125716 0.0 10141171
12:00+21n91245100 0.0 10142099
15:00+24nnw10113456 0.0 10132787
18:00+22nnw8114113 0.0 10152387
21:00+20nnw7124687 0.0 1016812
3 july, sun
sun300:00+15nw512670 0.0 1015246
03:00+15nw497095 0.0 1015226
06:00+17nw510686 0.0 1016343
09:00+22nnw685095 0.0 1015865
12:00+22nnw584798 0.0 10151146
15:00+26nnw584182 0.3 10132429
18:00+23n37621 2.8 1013487
21:00+18ene237928 3.4 101523
4 july, mon
mon400:00+17w22852 0.0 101515
03:00+16nw228916 0.0 101512
06:00+18nw23810 0.0 1015115
09:00+24nw44540 0.0 1015907
12:00+28n67350 0.0 10142499
15:00+29n77320 0.0 10142627
18:00+27nne663610 0.0 10142357
21:00+20ene4106249 0.0 1016255